ACA1651 KMIA-CYUL

Flight info

Callsign ACA1651
Flight time N/A
Altitude 36000
Route FOLZZ3 ALYRA/N0454F380 DCT GRUBR/N0452F370 Y299 SEELO DCT WAALT Q131 EARZZ DCT JAMIE Q133 PBERG CARTR5
Aircraft A319/M-SDE3FGHIRWY/LB1

Departure

Time 2026-04-30 20:30
Airport Miami International Airport (KMIA)

Arrival

Time N/A
Airport Montreal / Pierre Elliott Trudeau International Airport (CYUL)
Time Latitude Longitude Altitude Speed Heading
2026-04-30 19:59 25.79158 -80.27308 17 ft 0 kts 275°
2026-04-30 20:18 25.79158 -80.27303 17 ft 4 kts 275°
2026-04-30 20:18 25.79156 -80.27282 17 ft 4 kts 271°
2026-04-30 20:18 25.79157 -80.27253 17 ft 4 kts 259°
2026-04-30 20:19 25.79166 -80.27228 18 ft 4 kts 199°
2026-04-30 20:19 25.79172 -80.27226 19 ft 0 kts 178°
2026-04-30 20:21 25.79169 -80.27226 17 ft 1 kts 178°
2026-04-30 20:22 25.79157 -80.27225 19 ft 3 kts 177°
2026-04-30 20:22 25.79115 -80.27223 17 ft 9 kts 177°
2026-04-30 20:22 25.79035 -80.27218 16 ft 13 kts 178°
2026-04-30 20:22 25.78944 -80.27227 15 ft 12 kts 212°
2026-04-30 20:23 25.78927 -80.27308 15 ft 11 kts 268°
2026-04-30 20:23 25.78923 -80.27385 17 ft 9 kts 266°
2026-04-30 20:23 25.78917 -80.27466 18 ft 13 kts 260°
2026-04-30 20:23 25.78893 -80.27592 19 ft 20 kts 258°
2026-04-30 20:24 25.78876 -80.27755 18 ft 21 kts 268°
2026-04-30 20:24 25.78870 -80.27913 21 ft 20 kts 269°
2026-04-30 20:24 25.78921 -80.28043 22 ft 19 kts 299°
2026-04-30 20:24 25.78985 -80.28169 21 ft 19 kts 300°
2026-04-30 20:25 25.79123 -80.28424 18 ft 21 kts 308°
2026-04-30 20:25 25.79202 -80.28561 16 ft 21 kts 299°
2026-04-30 20:26 25.79352 -80.28855 15 ft 22 kts 300°
2026-04-30 20:26 25.79495 -80.29132 18 ft 20 kts 300°
2026-04-30 20:26 25.79559 -80.29259 19 ft 19 kts 300°
2026-04-30 20:27 25.79692 -80.29520 17 ft 20 kts 299°
2026-04-30 20:27 25.79836 -80.29802 13 ft 22 kts 299°
2026-04-30 20:28 25.79981 -80.30086 15 ft 20 kts 300°
2026-04-30 20:28 25.80076 -80.30016 14 ft 14 kts 88°
2026-04-30 20:29 25.80107 -80.29234 21 ft 110 kts 87°
2026-04-30 20:30 25.80185 -80.25771 1261 ft 154 kts 107°
2026-04-30 20:30 25.78687 -80.22231 2408 ft 199 kts 119°
2026-04-30 20:31 25.76459 -80.17306 3668 ft 271 kts 119°
2026-04-30 20:32 25.74664 -80.11211 6079 ft 291 kts 82°
2026-04-30 20:32 25.76439 -80.07248 7721 ft 293 kts 45°
2026-04-30 20:33 25.77801 -80.05547 8549 ft 296 kts 46°
2026-04-30 20:33 25.80541 -80.02101 10108 ft 303 kts 46°
2026-04-30 20:33 25.81983 -80.00278 10410 ft 325 kts 46°
2026-04-30 20:34 25.85123 -79.96297 11245 ft 352 kts 46°
2026-04-30 20:34 25.88383 -79.92135 12611 ft 361 kts 46°
2026-04-30 20:35 25.90040 -79.90018 13297 ft 365 kts 46°
2026-04-30 20:35 25.91715 -79.87880 13951 ft 368 kts 46°
2026-04-30 20:35 25.95094 -79.83582 15152 ft 375 kts 46°
2026-04-30 20:36 25.96820 -79.81385 15764 ft 378 kts 46°
2026-04-30 20:36 25.98554 -79.79172 16368 ft 381 kts 46°
2026-04-30 20:36 26.02071 -79.74685 17549 ft 388 kts 46°
2026-04-30 20:37 26.03857 -79.72402 18137 ft 392 kts 46°
2026-04-30 20:37 26.05652 -79.70106 18648 ft 395 kts 46°
2026-04-30 20:37 26.07465 -79.67790 19142 ft 398 kts 46°
2026-04-30 20:37 26.09295 -79.65455 19639 ft 402 kts 46°
2026-04-30 20:38 26.11075 -79.63042 20117 ft 407 kts 52°
2026-04-30 20:38 26.12708 -79.60456 20611 ft 410 kts 52°
2026-04-30 20:38 26.14359 -79.57848 21085 ft 413 kts 52°
2026-04-30 20:39 26.17705 -79.52575 22013 ft 420 kts 52°
2026-04-30 20:39 26.19399 -79.49911 22467 ft 423 kts 52°
2026-04-30 20:39 26.21087 -79.47257 22894 ft 426 kts 52°
2026-04-30 20:40 26.24536 -79.41817 23685 ft 433 kts 52°
2026-04-30 20:40 26.26278 -79.39064 24033 ft 436 kts 52°
2026-04-30 20:40 26.28114 -79.36369 24370 ft 436 kts 45°
2026-04-30 20:41 26.32795 -79.32128 25038 ft 434 kts 29°
2026-04-30 20:41 26.35361 -79.30316 25375 ft 437 kts 29°
2026-04-30 20:41 26.37938 -79.28487 25707 ft 440 kts 29°
2026-04-30 20:41 26.40492 -79.26668 26039 ft 442 kts 29°
2026-04-30 20:42 26.43092 -79.24814 26371 ft 444 kts 29°
2026-04-30 20:42 26.45706 -79.22953 26702 ft 447 kts 29°
2026-04-30 20:42 26.50974 -79.19187 27357 ft 451 kts 29°
2026-04-30 20:43 26.53627 -79.17290 27689 ft 454 kts 29°
2026-04-30 20:43 26.56291 -79.15385 28013 ft 456 kts 29°
2026-04-30 20:43 26.58968 -79.13470 28335 ft 458 kts 29°
2026-04-30 20:44 26.64367 -79.09613 28985 ft 463 kts 29°
2026-04-30 20:44 26.67053 -79.07689 29282 ft 465 kts 29°
2026-04-30 20:44 26.72529 -79.03760 29911 ft 470 kts 28°
2026-04-30 20:45 26.78047 -78.99802 30461 ft 473 kts 28°
2026-04-30 20:45 26.80821 -78.97810 30740 ft 474 kts 28°
2026-04-30 20:45 26.83605 -78.95808 31019 ft 475 kts 28°
2026-04-30 20:46 26.91918 -78.89819 32073 ft 472 kts 28°
2026-04-30 20:46 26.94679 -78.87830 32481 ft 470 kts 27°
2026-04-30 20:47 27.00167 -78.83872 33298 ft 466 kts 27°
2026-04-30 20:47 27.02886 -78.81908 33709 ft 464 kts 27°
2026-04-30 20:48 27.08289 -78.78000 34467 ft 460 kts 27°
2026-04-30 20:48 27.10974 -78.76060 34810 ft 458 kts 27°
2026-04-30 20:48 27.13649 -78.74129 34926 ft 456 kts 27°
2026-04-30 20:48 27.16302 -78.72211 34954 ft 451 kts 27°
2026-04-30 20:49 27.21567 -78.68404 34947 ft 449 kts 27°
2026-04-30 20:50 27.29689 -78.63488 34945 ft 436 kts 10°
2026-04-30 20:50 27.35588 -78.62415 34947 ft 428 kts
2026-04-30 20:51 27.41511 -78.61657 34949 ft 428 kts
2026-04-30 20:51 27.50416 -78.60494 34952 ft 429 kts
2026-04-30 20:52 27.56314 -78.59726 34955 ft 429 kts
2026-04-30 20:53 27.65210 -78.58568 34949 ft 429 kts
2026-04-30 20:53 27.71142 -78.57791 34946 ft 428 kts
2026-04-30 20:54 27.79993 -78.56647 34942 ft 428 kts
2026-04-30 20:55 27.88902 -78.55485 34928 ft 429 kts
2026-04-30 20:55 27.94799 -78.54704 34929 ft 429 kts
2026-04-30 20:56 28.03704 -78.53533 34929 ft 429 kts
2026-04-30 20:57 28.12625 -78.52373 34927 ft 430 kts
2026-04-30 20:57 28.18570 -78.51589 34929 ft 430 kts
2026-04-30 20:58 28.27461 -78.50417 34931 ft 430 kts
2026-04-30 20:58 28.33413 -78.49632 34932 ft 430 kts
2026-04-30 20:59 28.42305 -78.48462 34935 ft 431 kts
2026-04-30 21:00 28.54227 -78.46896 34939 ft 431 kts
2026-04-30 21:01 28.63164 -78.45695 34941 ft 431 kts
2026-04-30 21:02 28.72066 -78.44514 34928 ft 431 kts
2026-04-30 21:02 28.78043 -78.43731 34931 ft 431 kts
2026-04-30 21:03 28.83994 -78.42937 34933 ft 431 kts
2026-04-30 21:03 28.89919 -78.42142 34924 ft 431 kts
2026-04-30 21:04 28.95911 -78.41343 35166 ft 435 kts 360°
2026-04-30 21:04 28.98922 -78.40942 35449 ft 434 kts 360°
2026-04-30 21:04 29.04911 -78.40145 36063 ft 432 kts 360°
2026-04-30 21:05 29.07895 -78.39743 36367 ft 431 kts 360°
2026-04-30 21:05 29.10870 -78.39340 36659 ft 430 kts 360°
2026-04-30 21:05 29.13839 -78.38937 36873 ft 429 kts 360°
2026-04-30 21:05 29.16769 -78.38543 36919 ft 429 kts 359°
2026-04-30 21:06 29.22696 -78.37754 36919 ft 428 kts 359°
2026-04-30 21:06 29.28616 -78.36969 36915 ft 428 kts 359°
2026-04-30 21:07 29.34533 -78.36174 36914 ft 428 kts 359°
2026-04-30 21:07 29.40425 -78.35381 36916 ft 428 kts 359°
2026-04-30 21:08 29.46353 -78.34620 36918 ft 424 kts 355°
2026-04-30 21:08 29.52070 -78.35375 36925 ft 407 kts 337°
2026-04-30 21:09 29.57486 -78.37154 36921 ft 407 kts 338°
2026-04-30 21:09 29.62954 -78.38927 36923 ft 407 kts 338°
2026-04-30 21:10 29.67495 -78.40390 36926 ft 407 kts 338°
2026-04-30 21:10 29.72951 -78.42159 36932 ft 407 kts 337°
2026-04-30 21:11 29.78398 -78.43944 36933 ft 407 kts 337°
2026-04-30 21:11 29.83840 -78.45726 36933 ft 406 kts 337°
2026-04-30 21:12 29.89280 -78.47504 36936 ft 406 kts 337°
2026-04-30 21:12 29.94725 -78.49274 36934 ft 406 kts 337°
2026-04-30 21:13 30.00129 -78.51045 36932 ft 406 kts 336°
2026-04-30 21:13 30.05562 -78.52832 36932 ft 406 kts 336°
2026-04-30 21:14 30.11003 -78.54614 36932 ft 406 kts 336°
2026-04-30 21:14 30.16661 -78.55604 36925 ft 424 kts 354°
2026-04-30 21:15 30.22557 -78.54831 36926 ft 430 kts 358°
2026-04-30 21:15 30.28506 -78.53966 36922 ft 430 kts 358°
2026-04-30 21:16 30.34417 -78.53117 36921 ft 430 kts 358°
2026-04-30 21:16 30.40363 -78.52270 36916 ft 430 kts 358°
2026-04-30 21:17 30.46322 -78.51384 36921 ft 431 kts 358°
2026-04-30 21:17 30.52244 -78.50411 36920 ft 432 kts 359°
2026-04-30 21:18 30.58199 -78.49421 36922 ft 432 kts 358°
2026-04-30 21:18 30.64162 -78.48447 36919 ft 432 kts 358°
2026-04-30 21:19 30.70128 -78.47485 36919 ft 432 kts 358°
2026-04-30 21:19 30.76096 -78.46520 36919 ft 433 kts 358°
2026-04-30 21:20 30.82031 -78.45551 36912 ft 433 kts 358°
2026-04-30 21:20 30.88001 -78.44574 36909 ft 433 kts 358°
2026-04-30 21:21 30.93973 -78.43595 36911 ft 433 kts 358°
2026-04-30 21:22 31.02900 -78.42140 36903 ft 433 kts 358°
2026-04-30 21:23 31.14862 -78.40188 36897 ft 434 kts 358°
2026-04-30 21:23 31.23832 -78.38708 36892 ft 434 kts 358°
2026-04-30 21:24 31.29825 -78.37721 36893 ft 434 kts 358°
2026-04-30 21:24 31.35766 -78.36744 36892 ft 434 kts 358°
2026-04-30 21:25 31.44746 -78.35275 36892 ft 434 kts 358°
2026-04-30 21:26 31.53737 -78.33783 36891 ft 435 kts 358°
2026-04-30 21:27 31.62709 -78.32297 36884 ft 435 kts 358°
2026-04-30 21:27 31.68715 -78.31302 36880 ft 436 kts 358°
2026-04-30 21:28 31.77726 -78.29798 36882 ft 436 kts 358°
2026-04-30 21:29 31.86713 -78.28302 36881 ft 436 kts 358°
2026-04-30 21:30 32.01732 -78.25798 36887 ft 436 kts 358°
2026-04-30 21:31 32.16703 -78.22616 36893 ft 438 kts
2026-04-30 21:32 32.25677 -78.20644 36902 ft 436 kts 360°
2026-04-30 21:32 32.31644 -78.19374 36903 ft 435 kts 360°
2026-04-30 21:33 32.40577 -78.17446 36907 ft 434 kts 360°
2026-04-30 21:34 32.46523 -78.16150 36909 ft 433 kts 360°
2026-04-30 21:34 32.55372 -78.14229 36907 ft 431 kts 359°
2026-04-30 21:35 32.61276 -78.12948 36908 ft 430 kts 359°
2026-04-30 21:35 32.67165 -78.11665 36909 ft 429 kts 359°
2026-04-30 21:36 32.73002 -78.10392 36906 ft 428 kts 359°
2026-04-30 21:37 32.84723 -78.07818 36910 ft 427 kts 359°
2026-04-30 21:37 32.90561 -78.06534 36916 ft 426 kts 359°
2026-04-30 21:38 32.96387 -78.05262 36919 ft 425 kts 359°
2026-04-30 21:38 33.02208 -78.03984 36916 ft 424 kts 359°
2026-04-30 21:39 33.07972 -78.02713 36916 ft 424 kts 358°
2026-04-30 21:39 33.13766 -78.01442 36916 ft 423 kts 358°
2026-04-30 21:40 33.19559 -78.00167 36913 ft 423 kts 358°
2026-04-30 21:40 33.25345 -77.98892 36915 ft 423 kts 358°
2026-04-30 21:41 33.31141 -77.97616 36914 ft 423 kts 358°
2026-04-30 21:41 33.36940 -77.96329 36911 ft 423 kts 358°
2026-04-30 21:42 33.42699 -77.95047 36919 ft 424 kts 358°
2026-04-30 21:42 33.48508 -77.93753 36912 ft 424 kts 358°
2026-04-30 21:43 33.54326 -77.92459 36919 ft 425 kts 358°
2026-04-30 21:43 33.60107 -77.91185 36912 ft 425 kts 358°
2026-04-30 21:44 33.65937 -77.89892 36912 ft 426 kts 358°
2026-04-30 21:44 33.71779 -77.88584 36912 ft 427 kts 358°
2026-04-30 21:45 33.77622 -77.87278 36917 ft 427 kts 358°
2026-04-30 21:45 33.83472 -77.85914 36916 ft 430 kts 359°
2026-04-30 21:46 33.89328 -77.84418 36917 ft 431 kts 359°
2026-04-30 21:46 33.95193 -77.82909 36916 ft 431 kts 359°
2026-04-30 21:47 34.01059 -77.81418 36915 ft 430 kts 359°
2026-04-30 21:47 34.06887 -77.79947 36915 ft 431 kts 359°
2026-04-30 21:48 34.12759 -77.78465 36915 ft 431 kts 359°
2026-04-30 21:48 34.18636 -77.76981 36915 ft 431 kts 359°
2026-04-30 21:49 34.24477 -77.75501 36909 ft 431 kts 359°
2026-04-30 21:49 34.30345 -77.74007 36914 ft 431 kts 358°
2026-04-30 21:50 34.36208 -77.72513 36910 ft 431 kts 358°
2026-04-30 21:50 34.42085 -77.71016 36913 ft 431 kts 358°
2026-04-30 21:51 34.47953 -77.69522 36911 ft 431 kts 358°
2026-04-30 21:51 34.53790 -77.68038 36910 ft 431 kts 358°
2026-04-30 21:52 34.56721 -77.67028 36915 ft 447 kts
2026-04-30 21:52 34.59601 -77.65422 36914 ft 457 kts 13°
2026-04-30 21:52 34.65312 -77.61999 36909 ft 458 kts 13°
2026-04-30 21:53 34.71030 -77.58555 36907 ft 458 kts 13°
2026-04-30 21:53 34.76717 -77.55149 36913 ft 458 kts 13°
2026-04-30 21:54 34.82450 -77.51724 36921 ft 459 kts 13°
2026-04-30 21:54 34.88187 -77.48286 36920 ft 459 kts 13°
2026-04-30 21:55 34.93926 -77.44844 36934 ft 460 kts 13°
2026-04-30 21:55 34.99638 -77.41401 36931 ft 461 kts 13°
2026-04-30 21:56 35.05392 -77.37927 36929 ft 461 kts 13°
2026-04-30 21:56 35.11149 -77.34448 36920 ft 462 kts 13°
2026-04-30 21:57 35.16915 -77.30966 36915 ft 462 kts 13°
2026-04-30 21:57 35.22690 -77.27471 36914 ft 463 kts 13°
2026-04-30 21:58 35.28438 -77.23980 36917 ft 463 kts 13°
2026-04-30 21:58 35.34222 -77.20463 36911 ft 464 kts 13°
2026-04-30 21:59 35.40003 -77.16952 36914 ft 464 kts 13°
2026-04-30 22:00 35.48687 -77.11655 36917 ft 465 kts 13°
2026-04-30 22:00 35.57359 -77.06362 36914 ft 466 kts 13°
2026-04-30 22:01 35.63186 -77.02799 36915 ft 467 kts 13°
2026-04-30 22:01 35.68021 -76.99824 36910 ft 467 kts 14°
2026-04-30 22:02 35.73845 -76.96243 36917 ft 467 kts 13°
2026-04-30 22:02 35.79686 -76.92674 36912 ft 469 kts 14°
2026-04-30 22:03 35.85526 -76.89068 36914 ft 469 kts 14°
2026-04-30 22:03 35.91327 -76.85479 36921 ft 468 kts 13°
2026-04-30 22:04 35.97232 -76.82214 36913 ft 462 kts
2026-04-30 22:05 36.06175 -76.77831 36923 ft 461 kts
2026-04-30 22:05 36.12139 -76.74811 36915 ft 463 kts 10°
2026-04-30 22:06 36.18055 -76.71720 36908 ft 464 kts 10°
2026-04-30 22:06 36.26999 -76.67056 36896 ft 464 kts 10°
2026-04-30 22:07 36.32961 -76.63957 36886 ft 465 kts 10°
2026-04-30 22:07 36.38903 -76.60871 36888 ft 465 kts 11°
2026-04-30 22:08 36.44886 -76.57754 36893 ft 466 kts 11°
2026-04-30 22:08 36.50868 -76.54620 36894 ft 466 kts 11°
2026-04-30 22:09 36.56870 -76.51479 36892 ft 467 kts 11°
2026-04-30 22:09 36.62830 -76.48358 36897 ft 468 kts 11°
2026-04-30 22:10 36.68837 -76.45200 36883 ft 468 kts 11°
2026-04-30 22:10 36.74853 -76.42039 36887 ft 469 kts 11°
2026-04-30 22:11 36.83904 -76.37275 36888 ft 471 kts 12°
2026-04-30 22:12 36.89909 -76.34096 36902 ft 472 kts 12°
2026-04-30 22:12 36.95959 -76.30890 36904 ft 472 kts 12°
2026-04-30 22:13 37.02018 -76.27685 36903 ft 473 kts 12°
2026-04-30 22:13 37.08093 -76.24463 36876 ft 474 kts 12°
2026-04-30 22:14 37.14172 -76.21230 36878 ft 475 kts 13°
2026-04-30 22:14 37.20256 -76.17993 36881 ft 475 kts 13°
2026-04-30 22:15 37.26344 -76.14739 36884 ft 476 kts 13°
2026-04-30 22:15 37.32397 -76.11500 36883 ft 476 kts 13°
2026-04-30 22:16 37.38498 -76.08234 36892 ft 476 kts 13°
2026-04-30 22:17 37.50698 -76.01691 36891 ft 477 kts 14°
2026-04-30 22:17 37.59845 -75.96707 36889 ft 481 kts 18°
2026-04-30 22:18 37.68455 -75.89824 36881 ft 490 kts 26°
2026-04-30 22:19 37.77013 -75.82747 36881 ft 490 kts 26°
2026-04-30 22:20 37.85551 -75.75658 36885 ft 491 kts 26°
2026-04-30 22:20 37.94125 -75.68505 36886 ft 492 kts 26°
2026-04-30 22:21 37.99841 -75.63727 36884 ft 492 kts 26°
2026-04-30 22:21 38.05534 -75.58954 36889 ft 493 kts 26°
2026-04-30 22:22 38.11266 -75.54151 36884 ft 493 kts 26°
2026-04-30 22:22 38.16996 -75.49343 36881 ft 494 kts 27°
2026-04-30 22:23 38.22691 -75.44536 36877 ft 494 kts 27°
2026-04-30 22:23 38.28758 -75.40798 36877 ft 475 kts
2026-04-30 22:24 38.35140 -75.39194 36876 ft 466 kts
2026-04-30 22:24 38.41555 -75.37837 36883 ft 467 kts
2026-04-30 22:25 38.47928 -75.36479 36877 ft 468 kts
2026-04-30 22:25 38.54360 -75.35109 36878 ft 468 kts
2026-04-30 22:26 38.64010 -75.33064 36880 ft 468 kts
2026-04-30 22:27 38.70446 -75.31679 36878 ft 469 kts
2026-04-30 22:27 38.79903 -75.28289 36874 ft 488 kts 22°
2026-04-30 22:28 38.88820 -75.21933 36865 ft 489 kts 23°
2026-04-30 22:29 39.00736 -75.13463 36854 ft 489 kts 23°
2026-04-30 22:31 39.21515 -74.98600 36849 ft 489 kts 23°
2026-04-30 22:32 39.35790 -74.86494 36841 ft 494 kts 30°
2026-04-30 22:33 39.49862 -74.73647 36849 ft 495 kts 30°
2026-04-30 22:35 39.63919 -74.60752 36846 ft 496 kts 30°
2026-04-30 22:36 39.77993 -74.47771 36868 ft 496 kts 31°
2026-04-30 22:37 39.89194 -74.37390 36882 ft 495 kts 31°
2026-04-30 22:38 40.00409 -74.26957 36875 ft 495 kts 31°
2026-04-30 22:39 40.08789 -74.19124 36871 ft 496 kts 31°
2026-04-30 22:40 40.25616 -74.03347 36864 ft 496 kts 31°
2026-04-30 22:41 40.40105 -73.91503 36863 ft 488 kts 19°
2026-04-30 22:43 40.58517 -73.80115 36859 ft 488 kts 19°
2026-04-30 22:43 40.64769 -73.76737 36859 ft 479 kts
2026-04-30 22:44 40.71249 -73.74829 36855 ft 476 kts
2026-04-30 22:45 40.90607 -73.69186 36840 ft 476 kts
2026-04-30 22:47 41.10027 -73.63484 36832 ft 476 kts
2026-04-30 22:48 41.22927 -73.59674 36845 ft 475 kts
2026-04-30 22:49 41.42334 -73.56191 36860 ft 467 kts 358°
2026-04-30 22:51 41.61665 -73.53548 36840 ft 466 kts 358°
2026-04-30 22:52 41.71346 -73.52232 36835 ft 466 kts 358°
2026-04-30 22:53 41.84220 -73.50481 36821 ft 466 kts 359°
2026-04-30 22:53 41.93902 -73.49164 36824 ft 466 kts 359°
2026-04-30 22:55 42.09987 -73.46925 36813 ft 465 kts 359°
2026-04-30 22:56 42.22816 -73.45163 36822 ft 464 kts 359°
2026-04-30 22:57 42.37778 -73.43082 36841 ft 463 kts 359°
2026-04-30 22:58 42.50588 -73.41302 36840 ft 462 kts 360°
2026-04-30 22:59 42.69719 -73.38598 36847 ft 461 kts 360°